"Pseudo-MPEC" for C0VN195

Created 2024 Dec 2 10:31:05 UT using Find_Orb

Click here for an explanation of pseudo-MPECs

 
 Astrometry: 
     C0VN195* C2024 11 29.35480304 57 35.528+18 14 05.46   ~BT9V 22.95GVNEOCPV00
     C0VN195  C2024 11 29.36042704 57 35.284+18 14 11.76   ~BT9V 21.79GVNEOCPV00
     C0VN195  C2024 11 29.36603004 57 35.017+18 14 18.06   ~BT9V 22.90GVNEOCPV00
     C0VN195  C2024 11 29.37165304 57 34.765+18 14 24.18   ~BT9V 22.62GVNEOCPV00
     C0VN195 mC2024 11 29.40288104 57 33.240+18 14 57.90   ~BTAH 23.19GVNEOCPV00
     C0VN195 mC2024 11 29.40700404 57 33.010+18 15 02.40   ~BTAH 22.65GVNEOCPV00
     C0VN195 mC2024 11 29.41522304 57 32.640+18 15 10.40   ~BTAH       VNEOCPV00
     C0VN195  C2024 12 01.20153004 56 16.550+18 47 46.20   ~C16V       VNEOCP291
     C0VN195  C2024 12 01.22031004 56 15.670+18 48 06.00   ~C16V       VNEOCP291
     C0VN195  C2024 12 01.23909004 56 14.740+18 48 26.90   ~C16V       VNEOCP291

Station data:
(291) LPL/Spacewatch II  (N31.961669 W111.599905)  US/Arizona.  Observers J.
   V. Scotti, R. S. McMillan. 1.8-m f/2.7 reflector + CCD.
(V00) Kitt Peak-Bok  (N31.963125 W111.600190)  US/Arizona.  Observers T. A.
   Pruyne, B. M. Africano, E. J. Christensen, G. A. Farneth, D. C. Fuls, A.
   R. Gibbs, A. D. Grauer, H. Gröller, J. A. Johnson, R. A. Kowalski, S. M.
   Larson, G. J. Leonard, D. Rankin, R. L. Seaman, F. C. Shelly, K. W.
   Wierzchoś. 2.25-m reflector + 4x4K mosaic CCD.

Orbital elements:  C0VN195
   Perihelion 2024 Nov 9.53353 +/- 46.5 TT = 12:48:17 (JD 2460624.03353)
Epoch 2024 Dec  1.0 TT = JDT 2460645.5   Earth MOID: 0.5120   Ma: 0.0128
M   5.45591756 +/- 10               (J2000 ecliptic)             AutoNEOCP
n   0.25416000 +/- 0.0942           Peri.  338.85884 +/- 33
a   2.46829983 +/- 0.61             Node    78.43045 +/- 0.7
e   0.3945239 +/- 0.121             Incl.   10.31644 +/- 2.5
P   3.87790                H 23.02  G  0.15   U 11.2  SR
q 1.49449640 +/- 0.127    Q 3.44210325 +/- 1.7
From 10 observations 2024 Nov. 29-Dec. 1 (45.2 hr); mean residual 0".32
Residuals in arcseconds: 
241129 V00  .38-  .23-    241129 V00  .15+  .20+    241201 291  .19+  .38-    
241129 V00  .03+  .04-    241129 V00  .31-  .25+    241201 291  .15+  .37-    
241129 V00  .10+  .19+    241129 V00  .02+  .60-    
241129 V00  .40+  .22+    241201 291  .35-  .77+    

Ephemerides (geocentric):
Date (UTC) HH   RA             Dec           delta  r     elong  mag " sig PA
---- --------  ------------   ------------  ------ ------ -----  --- --------
2024 12 02 11  04 55 20.052   +19 10 50.39  .52380 1.5081 174.5 22.9 30.3  30
2024 12 02 12  04 55 18.184   +19 11 36.17  .52383 1.5082 174.6 22.8 31.8  30
2024 12 02 13  04 55 16.316   +19 12 21.96  .52386 1.5082 174.6 22.8 33.2  30
2024 12 02 14  04 55 14.447   +19 13 07.75  .52389 1.5083 174.6 22.8 34.7  30
2024 12 02 15  04 55 12.576   +19 13 53.54  .52392 1.5083 174.7 22.8 36.3  30
2024 12 02 16  04 55 10.705   +19 14 39.33  .52395 1.5084 174.7 22.8 37.8  30
2024 12 02 17  04 55 08.833   +19 15 25.12  .52398 1.5084 174.8 22.8 39.4  30
2024 12 02 18  04 55 06.961   +19 16 10.91  .52402 1.5085 174.8 22.8 41.0  30
2024 12 02 19  04 55 05.087   +19 16 56.70  .52405 1.5085 174.9 22.8 42.6  30
2024 12 02 20  04 55 03.213   +19 17 42.50  .52408 1.5086 174.9 22.8 44.3  30
2024 12 02 21  04 55 01.337   +19 18 28.29  .52411 1.5086 175.0 22.8 46.0  30
2024 12 02 22  04 54 59.461   +19 19 14.09  .52414 1.5087 175.0 22.8 47.7  30
2024 12 02 23  04 54 57.585   +19 19 59.88  .52418 1.5087 175.1 22.8 49.4  30
2024 12 03 00  04 54 55.707   +19 20 45.68  .52421 1.5088 175.1 22.8 51.2  30
2024 12 03 01  04 54 53.829   +19 21 31.47  .52425 1.5088 175.1 22.8 53.0  30
2024 12 03 02  04 54 51.949   +19 22 17.27  .52428 1.5089 175.2 22.8 54.9  30
2024 12 03 03  04 54 50.069   +19 23 03.07  .52431 1.5089 175.2 22.8 56.7  30
2024 12 03 04  04 54 48.189   +19 23 48.86  .52435 1.5090 175.3 22.8 58.6  30
2024 12 03 05  04 54 46.307   +19 24 34.66  .52438 1.5090 175.3 22.8 60.5  30
2024 12 03 06  04 54 44.425   +19 25 20.46  .52442 1.5091 175.4 22.8 62.5  30
2024 12 03 07  04 54 42.542   +19 26 06.25  .52446 1.5091 175.4 22.8 64.4  30
2024 12 03 08  04 54 40.659   +19 26 52.05  .52449 1.5092 175.5 22.8 66.4  30
2024 12 03 09  04 54 38.775   +19 27 37.85  .52453 1.5092 175.5 22.8 68.5  30
2024 12 03 10  04 54 36.890   +19 28 23.64  .52457 1.5093 175.6 22.8 70.5  30
2024 12 03 11  04 54 35.004   +19 29 09.44  .52460 1.5093 175.6 22.8 72.6  30
2024 12 03 12  04 54 33.118   +19 29 55.24  .52464 1.5094 175.6 22.8 74.7  30
2024 12 03 13  04 54 31.231   +19 30 41.03  .52468 1.5094 175.7 22.8 76.8  30
2024 12 03 14  04 54 29.344   +19 31 26.82  .52472 1.5095 175.7 22.8 79.0  30
2024 12 03 15  04 54 27.456   +19 32 12.62  .52476 1.5095 175.8 22.8 81.2  30
2024 12 03 16  04 54 25.567   +19 32 58.41  .52479 1.5096 175.8 22.8 83.4  30
2024 12 03 17  04 54 23.678   +19 33 44.20  .52483 1.5096 175.9 22.8 85.7  30
2024 12 03 18  04 54 21.789   +19 34 29.99  .52487 1.5097 175.9 22.8 88.0  30
2024 12 03 19  04 54 19.898   +19 35 15.78  .52491 1.5097 175.9 22.8 90.3  30
2024 12 03 20  04 54 18.007   +19 36 01.57  .52495 1.5098 176.0 22.8 92.6  30
2024 12 03 21  04 54 16.116   +19 36 47.36  .52499 1.5098 176.0 22.8 95.0  30
2024 12 03 22  04 54 14.224   +19 37 33.14  .52504 1.5099 176.1 22.8 97.3  30
2024 12 03 23  04 54 12.332   +19 38 18.93  .52508 1.5099 176.1 22.8  100  30
2024 12 04 00  04 54 10.439   +19 39 04.71  .52512 1.5100 176.2 22.8  102  30
2024 12 04 01  04 54 08.545   +19 39 50.49  .52516 1.5100 176.2 22.8  105  30
2024 12 04 02  04 54 06.651   +19 40 36.27  .52520 1.5101 176.2 22.8  107  30
2024 12 04 03  04 54 04.757   +19 41 22.05  .52525 1.5101 176.3 22.8  110  30
2024 12 04 04  04 54 02.862   +19 42 07.83  .52529 1.5102 176.3 22.8  112  30
2024 12 04 05  04 54 00.967   +19 42 53.60  .52533 1.5103 176.4 22.8  115  30
2024 12 04 06  04 53 59.071   +19 43 39.37  .52538 1.5103 176.4 22.8  117  30
2024 12 04 07  04 53 57.175   +19 44 25.14  .52542 1.5104 176.4 22.8  120  30
2024 12 04 08  04 53 55.279   +19 45 10.91  .52546 1.5104 176.5 22.8  123  30
2024 12 04 09  04 53 53.382   +19 45 56.68  .52551 1.5105 176.5 22.8  125  30
2024 12 04 10  04 53 51.485   +19 46 42.44  .52555 1.5105 176.6 22.8  128  30